1327708827607,94.4260
1327708887607,94.5555
1327708947607,94.8113
1327709007607,94.7918
1327709067607,94.7732
1327709127607,95.0676
1327709187607,95.0577
1327709247607,94.8632
1327709307607,94.6435
1327709367607,94.9716
1327709427607,95.0890
1327709487607,95.3027
1327709547607,94.4761
1327709607607,94.8211
1327709667607,95.4103
1327709727607,94.9881
1327709787607,95.3686
1327709847607,95.0959
1327709907607,94.8391
1327709967607,95.0970
1327710027607,95.3501
1327710087607,95.5956
1327710147607,95.6479
1327710207607,95.2844
1327710267607,95.7550
1327710327607,95.3810
1327710387607,95.7072
1327710447607,95.7972
1327710507607,95.3573
1327710567607,95.1985
1327710627607,95.7138
1327710687607,95.1313
1327710747607,95.4891
1327710807607,95.9466
1327710867607,95.5707
1327710927607,95.5260
1327710987607,95.5207
1327711047607,95.4859
1327711107607,96.2895
1327711167607,95.8810
1327711227607,95.5787
1327711287607,95.6999
1327711347607,96.2420
1327711407607,96.0298
1327711467607,95.6383
1327711527607,95.7922
1327711587607,96.0056
1327711647607,95.9040
1327711707607,95.7313
1327711767607,96.1394
1327711827607,96.0767
1327711887607,96.1170
1327711947607,96.1409
1327712007607,96.3111
1327712067607,96.1901
1327712127607,96.2237
1327712187607,96.2587
1327712247607,96.1479
1327712307607,96.5155
1327712367607,96.5365
1327712427618,96.0934
1327712487618,96.0487
1327712547618,96.0208
1327712607618,95.8803
1327712667618,96.0535
1327712727618,96.1520
1327712787618,96.3176
1327712847618,96.1915
1327712907618,96.1095
1327712967618,96.0342
1327713027618,95.7690
1327713087618,96.0683
1327713147618,95.8352
1327713207618,96.7146
1327713267618,95.6305
1327713327618,96.0334
1327713387618,95.9203
1327713447618,96.1366
1327713507618,95.9621
1327713567618,96.3493
1327713627618,96.2633
1327713687618,95.8272
1327713747618,96.0653
1327713807618,95.7023
1327713867618,96.2025
1327713927618,96.2606
1327713987618,96.0137
1327714047618,95.8352
1327714107618,95.7130
1327714167618,95.9339
1327714227618,95.8190
1327714287618,96.0557
1327714347618,95.6319
1327714407618,96.3258
1327714467618,95.8907
1327714527618,96.0803
1327714587618,96.1556
1327714647618,96.4361
1327714707618,96.6011
1327714767618,96.3642
1327714827618,96.5795
1327714887618,96.2123
1327714947618,96.2830
1327715007618,96.0881
1327715067618,95.9011
1327715127618,95.8573
1327715187618,95.9037
1327715247618,96.0756
1327715307618,95.9705
1327715367618,96.2968
1327715427618,96.0710
1327715487618,96.0124
1327715547618,96.0701
1327715607618,96.0253
1327715667618,95.8154
1327715727618,95.8868
1327715787618,96.2969
1327715847618,95.8236
1327715907618,95.7093
1327715967618,96.0003
1327716027628,95.5269
1327716087628,96.1703
1327716147629,95.6881
1327716207629,96.2510
1327716267629,96.2320
1327716327629,96.1494
1327716387629,96.2531
1327716447629,95.8419
1327716507629,96.3477
1327716567629,96.5788
1327716627628,96.4867
1327716687628,96.8443
1327716747628,96.7325
1327716807628,96.1778
1327716867628,96.4727
1327716927628,96.5986
1327716987628,96.4901
1327717047628,96.4164
1327717107628,96.3901
1327717167629,96.7304
1327717227629,96.3071
1327717287628,95.9314
1327717347628,96.5914
1327717407628,95.8381
1327717467629,96.1357
1327717527629,95.7942
1327717587629,95.5988
1327717647629,95.8191
1327717707629,96.1248
1327717767629,95.7143
1327717827629,95.8974
1327717887629,95.6294
1327717947628,95.9562
1327718007628,95.9806
1327718067628,95.8563
1327718127628,96.2080
1327718187628,95.8043
1327718247628,96.2163
1327718307628,95.9886
1327718367628,96.0517
1327718427628,95.4975
1327718487629,96.0309
1327718547629,95.5143
1327718607628,96.0003
1327718667628,95.9607
1327718727628,95.7093
1327718787628,95.8565
1327718847629,95.6419
1327718907629,95.7764
1327718967629,95.9419
1327719027629,95.4149
1327719087629,95.2289
1327719147629,95.5729
1327719207629,96.2014
1327719267629,95.8039
1327719327628,95.4611
1327719387628,95.8806
1327719447628,96.1151
1327719507628,95.9683
1327719567628,95.7458
1327719627639,96.2306
1327719687639,96.1261
1327719747639,95.4969
1327719807639,96.0285
1327719867639,96.1082
1327719927639,95.9616
1327719987639,96.1158
1327720047639,95.9428
1327720107639,95.5567
1327720167639,95.8675
1327720227639,95.7729
1327720287639,96.0820
1327720347639,95.8230
1327720407639,96.5299
1327720467639,95.6474
1327720527639,96.1798
1327720587639,96.0890
1327720647639,98.0979
1327720707639,96.0245
1327720767639,96.5046
1327720827639,96.3461
1327720887639,95.9023
1327720947639,95.6014
1327721007639,96.0835
1327721067639,95.9829
1327721127639,96.1840
1327721187639,96.1274
1327721247639,96.6398
1327721307639,96.0190
1327721367639,96.2352
1327721427639,96.0198
1327721487639,95.7815
1327721547639,96.1673
1327721607639,96.0205
1327721667639,95.9997
1327721727639,95.9454
1327721787639,95.8152
1327721847639,95.3904
1327721907639,95.9914
1327721967639,95.8705
1327722027639,95.5575
1327722087639,95.7573
1327722147639,95.9123
1327722207639,96.1449
1327722267639,95.5645
1327722327639,95.8320
1327722387639,95.5944
1327722447639,96.0102
1327722507639,95.3670
1327722567639,95.9761
1327722627639,96.0595
1327722687639,95.7114
1327722747639,95.8969
1327722807639,95.9423
1327722867639,95.9636
1327722927639,95.8662
1327722987639,95.8352
1327723047639,96.0648
1327723107639,95.7646
1327723167639,95.9125
1327723227650,95.8158
1327723287650,95.7761
1327723347650,96.0142
1327723407650,95.6921
1327723467650,95.6642
1327723527650,95.7638
1327723587650,95.6488
1327723647650,95.6612
1327723707650,95.7459
1327723767650,96.0035
1327723827650,95.1777
1327723887650,95.9118
1327723947650,96.1070
1327724007650,95.4274
1327724067650,95.8476
1327724127650,95.7497
1327724187650,95.3937
1327724247650,95.8980
1327724307650,95.6164
1327724367650,95.2601
1327724427650,95.2119
1327724487650,95.2723
1327724547650,95.9976
1327724607650,95.1789
1327724667650,95.1465
1327724727650,95.3552
1327724787650,95.3747
1327724847650,95.4189
1327724907650,95.2651
1327724967650,95.3870
1327725027650,95.2787
1327725087650,95.0674
1327725147650,95.2815
1327725207650,95.3586
1327725267650,94.9292
1327725327650,95.1404
1327725387650,95.0692
1327725447650,95.1869
1327725507650,95.1431
1327725567650,95.2070
1327725627650,94.7956
1327725687650,94.9738
1327725747650,95.3530
1327725807650,94.7626
1327725867650,95.5180
1327725927650,94.7042
1327725987650,94.5726
1327726047650,94.9009
1327726107650,94.7385
1327726167650,94.8844
1327726227650,94.7473
1327726287650,95.1618
1327726347650,94.7607
1327726407650,95.1075
1327726467650,94.7081
1327726527650,94.6056
1327726587650,94.7460
1327726647650,94.7809
1327726707650,94.7517
1327726767650,95.1411
1327726827661,94.5629
1327726887661,95.2322
1327726947661,95.2883
1327727007661,94.6678
1327727067661,95.0657
1327727127661,94.6943
1327727187661,95.5645
1327727247661,95.0855
1327727307661,94.5243
1327727367661,94.3909
1327727427661,94.8541
1327727487661,94.5648
1327727547661,94.5886
1327727607661,94.7229
1327727667661,95.0536
1327727727661,95.1464
1327727787661,94.5966
1327727847661,94.7238
1327727907661,94.4536
1327727967661,94.2271
1327728027661,95.1133
1327728087661,94.9497
1327728147661,94.7603
1327728207661,94.2316
1327728267661,94.6048
1327728327661,94.7746
1327728387661,95.0479
1327728447661,94.5288
1327728507661,94.4558
1327728567661,94.3468
1327728627661,94.5325
1327728687661,94.6302
1327728747661,95.3589
1327728807661,94.5723
1327728867661,94.4766
1327728927661,94.3552
1327728987661,94.4790
1327729047661,94.7931
1327729107661,95.0006
1327729167661,94.9434
1327729227661,94.9985
1327729287661,94.7142
1327729347661,94.1672
1327729407661,94.8061
1327729467661,94.8617
1327729527661,94.4565
1327729587661,94.0734
1327729647661,95.1537
1327729707661,94.5594
1327729767661,94.4954
1327729827661,94.3289
1327729887661,94.4377
1327729947661,94.2894
1327730007661,94.7077
1327730067661,94.2172
1327730127661,94.2739
1327730187661,94.7808
1327730247661,94.1306
1327730307661,94.5219
1327730367661,94.3765
1327730427673,94.3758
1327730487673,94.8612
1327730547673,94.4765
1327730607673,94.2239
1327730667673,94.7562
1327730727673,94.8963
1327730787673,94.6158
1327730847673,95.4079
1327730907673,94.7174
1327730967673,94.5611
1327731027673,94.8737
1327731087673,94.7860
1327731147673,94.9252
1327731207673,95.0510
1327731267673,94.9836
1327731327673,94.6022
1327731387673,94.7743
1327731447673,95.3777
1327731507673,94.7778
1327731567673,94.6204
1327731627673,94.5864
1327731687673,95.1737
1327731747673,95.3683
1327731807673,94.7559
1327731867673,94.5190
1327731927673,94.9580
1327731987673,94.6187
1327732047673,94.7127
1327732107673,94.7964
1327732167673,95.1387
1327732227673,95.1863
1327732287673,95.3555
1327732347673,95.1224
1327732407673,94.8274
1327732467673,95.1710
1327732527673,95.3533
1327732587673,95.2254
1327732647673,94.6121
1327732707673,95.1816
1327732767673,95.3091
1327732827673,95.0782
1327732887673,95.0388
1327732947673,95.4693
1327733007673,95.3101
1327733067673,95.6562
1327733127673,95.5698
1327733187673,95.4892
1327733247673,95.7536
1327733307673,94.9777
1327733367673,95.3472
1327733427673,95.7147
1327733487673,95.3075
1327733547673,95.7291
1327733607673,95.9906
1327733667673,95.5184
1327733727673,95.8514
1327733787673,96.2852
1327733847673,95.3205
1327733907673,97.3228
1327733967673,96.2883
1327734027684,96.2013
1327734087684,96.1019
1327734147684,96.2203
1327734207684,96.3432
1327734267684,96.0683
1327734327684,96.3535
1327734387684,96.3741
1327734447684,95.9717
1327734507684,96.4801
1327734567684,96.8516
1327734627684,96.0276
1327734687684,96.4135
1327734747684,96.6329
1327734807684,96.4164
1327734867684,96.5460
1327734927684,95.8561
1327734987684,96.6364
1327735047684,96.0664
1327735107684,96.5446
1327735167684,96.3804
1327735227684,96.4112
1327735287684,96.5353
1327735347684,96.6846
1327735407684,96.6856
1327735467684,96.9269
1327735527684,96.6367
1327735587684,96.5415
1327735647684,96.7125
1327735707684,97.2383
1327735767684,96.9826
1327735827684,96.8648
1327735887684,96.6793
1327735947684,97.5189
1327736007684,97.2610
1327736067684,96.9142
1327736127684,96.6849
1327736187684,97.1094
1327736247684,97.4263
1327736307684,96.9052
1327736367684,97.4588
1327736427684,97.4246
1327736487684,96.9708
1327736547684,96.6462
1327736607684,97.5878
1327736667684,97.3062
1327736727684,97.0474
1327736787684,97.7537
1327736847684,97.3182
1327736907684,97.5857
1327736967684,97.3848
1327737027684,97.5918
1327737087684,97.2005
1327737147684,97.4992
1327737207684,97.4967
1327737267684,97.8852
1327737327684,97.6402
1327737387684,97.4994
1327737447684,97.5844
1327737507684,97.4239
1327737567684,97.1461
1327737627696,97.5245
1327737687696,97.5494
1327737747696,97.4936
1327737807696,97.8191
1327737867696,97.3215
1327737927696,97.5279
1327737987696,97.7002
1327738047696,97.6674
1327738107696,97.4082
1327738167696,97.4793
1327738227696,97.3649
1327738287696,97.4551
1327738347696,97.6834
1327738407696,97.6148
1327738467696,97.7225
1327738527696,98.2254
1327738587696,97.3866
1327738647696,98.0304
1327738707696,97.6973
1327738767696,98.1146
1327738827696,97.7347
1327738887696,97.8747
1327738947696,97.8854
1327739007696,97.6757
1327739067696,97.8105
1327739127696,97.8226
1327739187696,98.1511
1327739247696,97.8557
1327739307696,97.6663
1327739367696,97.8941
1327739427696,97.3248
1327739487696,97.9744
1327739547696,97.4094
1327739607696,98.3774
1327739667696,97.6129
1327739727696,98.0038
1327739787696,98.0813
1327739847696,98.1209
1327739907696,97.9262
1327739967696,97.9709
1327740027696,97.7428
1327740087696,97.6123
1327740147696,97.4852
1327740207696,98.0373
1327740267696,97.8510
1327740327696,97.7270
1327740387696,97.6360
1327740447696,97.7488
1327740507696,97.5844
1327740567696,97.9303
1327740627696,97.2146
1327740687696,98.1845
1327740747696,97.2349
1327740807696,97.8441
1327740867696,97.7155
1327740927696,97.0345
1327740987696,97.7577
1327741047696,97.7552
1327741107696,97.5064
1327741167696,97.1769
1327741227708,97.6332
1327741287708,97.5196
1327741347708,97.2326
1327741407708,97.4132
1327741467708,97.6192
1327741527708,97.3743
1327741587708,97.2857
1327741647708,97.3574
1327741707708,97.8665
1327741767708,96.9161
1327741827708,97.0331
1327741887708,97.3376
1327741947708,97.1792
1327742007708,97.5530
1327742067708,97.8038
1327742127708,97.3056
1327742187708,97.2271
1327742247708,97.7566
1327742307708,97.0575
1327742367708,97.4029
1327742427708,97.5746
1327742487708,97.4101
1327742547708,97.4950
1327742607708,97.5386
1327742667708,97.6570
1327742727708,97.6114
1327742787708,97.1759
1327742847708,97.0409
1327742907708,97.3513
1327742967708,97.7002
1327743027708,97.6985
1327743087708,97.5573
1327743147708,97.1339
1327743207708,97.9968
1327743267708,96.8519
1327743327708,97.1222
1327743387708,97.1651
1327743447708,97.3872
1327743507708,96.8947
1327743567708,97.3759
1327743627708,97.6583
1327743687708,97.5878
1327743747708,97.1372
1327743807708,97.3614
1327743867708,97.2801
1327743927708,97.2537
1327743987708,97.6499
1327744047708,97.1565
1327744107708,97.5216
1327744167708,97.4151
1327744227708,97.4761
1327744287708,97.2579
1327744347708,97.2560
1327744407708,97.3330
1327744467708,96.9161
1327744527708,96.8605
1327744587708,97.2519
1327744647708,97.2583
1327744707708,96.9027
1327744767708,97.5739
1327744827720,96.9849
1327744887720,97.3805
1327744947720,96.9594
1327745007720,96.8326
1327745067719,96.7678
1327745127719,97.1768
1327745187720,96.5767
1327745247720,97.0116
1327745307720,97.3252
1327745367720,97.0494
1327745427720,97.2130
1327745487720,96.2351
1327745547720,97.2601
1327745607720,97.2298
1327745667720,97.3279
1327745727720,96.9699
1327745787720,96.9218
1327745847720,97.0219
1327745907720,96.9695
1327745967720,97.1912
1327746027720,97.1187
1327746087720,97.3451
1327746147720,96.3281
1327746207720,96.8762
1327746267720,96.4514
1327746327720,97.0304
1327746387720,96.7007
1327746447719,96.7246
1327746507720,97.3579
1327746567720,96.7091
1327746627720,97.0215
1327746687720,96.5972
1327746747720,96.9090
1327746807720,97.0473
1327746867720,97.1924
1327746927720,97.1213
1327746987720,97.2660
1327747047720,97.0276
1327747107720,97.1414
1327747167720,97.1315
1327747227720,96.5668
1327747287720,96.7448
1327747347720,97.2011
1327747407720,97.2067
1327747467720,97.3863
1327747527720,97.1357
1327747587720,96.9583
1327747647720,96.9355
1327747707720,97.3799
1327747767719,97.2585
1327747827719,96.8630
1327747887720,96.8712
1327747947720,97.4867
1327748007720,96.9112
1327748067720,97.3341
1327748127720,97.1970
1327748187720,97.1329
1327748247720,97.4194
1327748307720,96.9676
1327748367720,97.1711
1327748427731,97.5881
1327748487731,96.9219
1327748547731,97.9088
1327748607731,97.6044
1327748667731,97.1164
1327748727731,97.6823
1327748787731,97.3807
1327748847731,97.1861
1327748907731,97.5528
1327748967731,97.6827
1327749027731,97.7109
1327749087731,97.2579
1327749627731,96.6716
1327749687731,97.1895
1327749747731,96.8898
1327749807731,97.2095
1327749867731,97.0958
1327749927731,97.0353
1327749987731,97.2181
1327750047731,97.6502
1327750107731,97.2728
1327750167731,97.6924
1327750227731,97.5226
1327750287731,97.1821
1327750347731,96.7706
1327750407731,97.7883
1327750467731,97.5776
1327750527731,97.1869
1327750587731,97.6765
1327750647731,97.6429
1327750707731,97.1215
1327750767731,97.1074
1327750827731,97.5571
1327750887731,97.3024
1327750947731,97.2159
1327751007731,97.6288
1327751067731,97.3646
1327751127731,97.7087
1327751187731,97.1213
1327751247731,97.4425
1327751307731,97.7889
1327751367731,97.5544
1327751427731,97.6355
1327751487731,97.2950
1327751547731,97.3723
1327751607731,97.5383
1327751667731,97.2893
1327751727731,97.0913
1327751787731,97.2690
1327751847731,97.1319
1327751907731,97.4114
1327751967731,97.0757
1327752027743,96.8966
1327752087743,97.0778
1327752147743,97.0333
1327752207743,97.2769
1327752267743,97.3503
1327752327743,97.3105
1327752387743,97.0827
1327752447743,97.3460
1327752507743,97.5639
1327752567743,97.3341
1327752627743,96.6222
1327752687743,97.3366
1327752747743,97.2019
1327752807743,96.8258
1327752867743,96.9253
1327752927743,97.0126
1327752987743,96.6838
1327753047743,96.8270
1327753107743,96.7323
1327753167743,97.6968
1327753227743,96.8352
1327753287743,97.1030
1327753347743,96.9703
1327753407743,96.9685
1327753467743,96.8551
1327753527743,96.9625
1327753587743,97.2239
1327753647743,96.7896
1327753707743,96.8059
1327753767743,97.1858
1327753827743,96.7404
1327753887743,97.0125
1327753947743,96.9137
1327754007743,97.1403
1327754067743,96.7375
1327754127743,96.7766
1327754187743,96.3628
1327754247743,96.5176
1327754307743,97.1291
1327754367743,96.9102
1327754427743,97.4051
1327754487743,96.9838
1327754547743,97.0934
1327754607743,96.9170
1327754667743,96.7906
1327754727743,96.8366
1327754787743,96.8705
1327754847743,97.1104
1327754907743,97.0372
1327754967743,97.1231
1327755027743,97.2316
1327755087743,97.4959
1327755147743,97.5279
1327755207743,96.7752
1327755267743,96.9549
1327755327743,97.0073
1327755387743,96.6305
1327755447743,96.9174
1327755507743,97.2516
1327755567743,96.8046
1327755627755,97.1790
1327755687755,97.4309
1327755747755,96.8219
1327755807755,97.4005
1327755867755,96.8422
1327755927755,96.5605
1327755987755,96.7356
1327756047755,96.6993
1327756107755,97.3858
1327756167755,96.3745
1327756227755,96.9994
1327756287755,96.7789
1327756347755,96.9467
1327756407755,97.1240
1327756467755,96.8834
1327756527755,96.8434
1327756587755,96.9151
1327756647755,96.9749
1327756707755,96.7888
1327756767755,97.5329
1327756827755,96.9088
1327756887755,97.2778
1327756947755,96.8647
1327757007755,97.0526
1327757067755,97.2932
1327757127755,97.3238
1327757187755,96.8236
1327757247755,97.0212
1327757307755,96.8614
1327757367755,97.3734
1327757427755,97.3854
1327757487755,96.9246
1327757547755,97.2392
1327757607755,97.1555
1327757667755,97.0855
1327757727755,97.0761
1327757787755,97.0053
1327757847755,97.1210
1327757907755,97.8234
1327757967755,97.0026
1327758027755,96.9237
1327758087755,96.9705
1327758147755,97.3393
1327758207755,97.6295
1327758267755,97.3295
1327758327755,97.4807
1327758387755,97.3232
1327758447755,96.9160
1327758507755,97.1535
1327758567755,97.3562
1327758627755,97.1506
1327758687755,97.0516
1327758747755,97.4960
1327758807755,97.2703
1327758867755,97.6239
1327758927755,97.1751
1327758987755,97.5657
1327759047755,97.2049
1327759107755,96.9959
1327759167755,97.9120
1327759227767,97.6866
1327759287767,98.0387
1327759347767,97.4381
1327759407767,97.5215
1327759467767,97.2390
1327759527767,97.6456
1327759587767,97.4562
1327759647767,97.6874
1327759707767,97.7007
1327759767767,97.5096
1327759827767,97.5665
1327759887767,97.1827
1327759947767,97.4025
1327760007767,97.3320
1327760067767,97.7463
1327760127767,97.4421
1327760187767,97.7308
1327760247767,97.1361
1327760307767,97.4039
1327760367767,97.6272
1327760427767,97.5788
1327760487767,97.4882
1327760547767,97.5009
1327760607767,97.4371
1327760667767,97.8157
1327760727767,97.5078
1327760787767,97.3793
1327760847767,97.6540
1327760907767,97.8883
1327760967767,97.7368
1327761027767,97.7348
1327761087767,97.5913
1327761147767,98.0382
1327761207767,97.2975
1327761267767,97.4673
1327761327767,97.2876
1327761387767,97.0072
1327761447767,97.8840
1327761507767,97.3944
1327761567767,97.7874
1327761627767,97.1824
1327761687767,97.4169
1327761747767,97.6153
1327761807767,97.8226
1327761867767,97.4106
1327761927767,97.2456
1327761987767,98.0257
1327762047767,97.9138
1327762107767,97.6663
1327762167767,97.0739
1327762227767,97.5653
1327762287767,97.6316
1327762347767,97.6435
1327762407767,97.8642
1327762467767,97.7239
1327762527767,97.1825
1327762587767,97.5265
1327762647767,97.6062
1327762707767,97.8693
1327762767767,98.1804
1327762827779,97.6652
1327762887779,97.5376
1327762947779,98.0322
1327763007779,97.5735
1327763067779,97.7026
1327763127779,97.2751
1327763187779,98.3401
1327763247779,97.6363
1327763307779,97.3413
1327763367779,97.8629
1327763427779,97.8520
1327763487779,97.5616
1327763547779,97.8459
1327763607779,97.8531
1327763667779,97.9592
1327763727779,97.7578
1327763787779,98.1898
1327763847779,98.2451
1327763907779,98.2586
1327763967779,98.0712
1327764027779,98.2242
1327764087779,98.0880
1327764147779,98.3058
1327764207779,97.7005
1327764267779,98.3227
1327764327779,97.7173
1327764387779,98.2613
1327764447779,98.7880
1327764507779,97.8413
1327764567779,97.9479
1327764627779,98.1439
1327764687779,98.1526
1327764747779,98.7631
1327764807779,98.7743
1327764867779,98.6163
1327764927779,98.1291
1327764987779,98.0527
1327765047779,98.1597
1327765107779,98.5554
1327765167779,98.4796
1327765227779,98.4185
1327765287779,98.4454
1327765347779,98.5223
1327765407779,98.4719
1327765467779,98.3731
1327765527779,98.2347
1327765587779,98.1160
1327765647779,98.2191
1327765707779,98.1697
1327765767779,97.6432
1327765827779,98.1040
1327765887779,98.1131
1327765947779,98.5138
1327766007779,98.0853
1327766067779,98.1154
1327766127779,98.0699
1327766187779,98.4464
1327766247779,98.0587
1327766307779,98.1262
1327766367779,97.9143
1327766427791,97.8336
1327766487791,98.6979
1327766547791,98.0430
1327766607791,97.8695
1327766667791,98.7865
1327766727791,97.9339
1327766787791,97.9494
1327766847791,97.6272
1327766907791,97.9203
1327766967791,97.8270
1327767027791,97.9130
1327767087791,97.7837
1327767147791,97.8480
1327767207791,97.8460
1327767267791,98.1477
1327767327791,98.3079
1327767387791,97.9784
1327767447791,97.9396
1327767507791,97.8112
1327767567791,98.0299
1327767627791,98.4335
1327767687791,97.9445
1327767747791,97.6173
1327767807791,97.8372
1327767867791,97.6751
1327767927791,97.7146
1327767987791,98.0040
1327768047791,97.4005
1327768107791,98.3692
1327768167791,97.9274
1327768227791,97.7780
1327768287791,98.0035
1327768347791,97.5566
1327768407791,97.7625
1327768467791,97.5690
1327768527791,97.6879
1327768587791,97.2338
1327768647791,97.8627
1327768707791,97.6640
1327768767791,97.4990
1327768827791,97.7883
1327768887791,97.5160
1327768947791,97.8760
1327769007791,97.8506
1327769067791,97.8453
1327769127791,97.6368
1327769187791,97.6732
1327769247791,97.6737
1327769307791,97.6615
1327769367791,97.6927
1327769427791,97.9315
1327769487791,97.8738
1327769547791,97.6724
1327769607791,97.4119
1327769667791,98.2272
1327769727791,97.9736
1327769787791,97.6524
1327769847791,97.5935
1327769907791,97.2661
1327769967791,97.6214
1327770027802,97.5276
1327770087802,97.9222
1327770147802,97.5177
1327770207802,97.2709
1327770267802,97.5837
1327770327802,97.9554
1327770387802,97.4099
1327770447802,97.7768
1327770507802,97.6182
1327770567802,97.4003
1327770627802,97.4637
1327770687802,97.7675
1327770747802,97.6380
1327770807802,98.0206
1327770867802,97.8843
1327770927802,97.6056
1327770987802,97.7581
1327771047802,97.2182
1327771107802,97.5375
1327771167802,97.5779
1327771227802,97.9515
1327771287802,97.5513
1327771347802,97.5313
1327771407802,97.0707
1327771467802,98.1134
1327771527802,97.3438
1327771587802,97.2787
1327771647802,97.8601
1327771707802,97.7685
1327771767802,97.4967
1327771827802,97.7381
1327771887802,97.2663
1327771947802,97.3026
1327772007802,97.8874
1327772067802,97.6698
1327772127802,97.9027
1327772187802,97.8905
1327772247802,97.8759
1327772307802,97.0940
1327772367802,97.0688
1327772427802,97.5849
1327772487802,97.6450
1327772547802,97.4762
1327772607802,97.9881
1327772667802,97.7393
1327772727802,97.5218
1327772787802,97.3722
1327772847802,97.6172
1327772907802,97.5738
1327772967802,97.0751
1327773027802,97.7584
1327773087802,97.8403
1327773147802,97.3747
1327773207802,97.5796
1327773267802,97.1723
1327773327802,97.7388
1327773387802,97.7184
1327773447802,97.7545
1327773507802,97.5088
1327773567802,97.6198
1327773627814,97.6485
1327773687814,97.7598
1327773747814,97.7581
1327773807814,97.3586
1327773867814,97.8547
1327773927814,98.0854
1327773987814,98.1853
1327774047814,97.7089
1327774107814,97.9134
1327774167814,97.7911
1327774227814,97.7424
1327774287814,97.7467
1327774347814,98.1515
1327774407814,97.8772
1327774467814,97.7206
1327774527814,97.9844
1327774587814,98.1287
1327774647814,98.1675